Home   Weather   Key West   Past weeks

Flag for USA Past Weather in Key West, Florida, USA — Yesterday and Last 2 Weeks

Now
87 °F

Clear.


Feels Like: 100 °F
Forecast: 84 / 89 °F
Wind: 8 mph from East

Location: Key West International Airport

Current Time: Jul 25, 2017 at 10:59:32 pm

Latest Report: Jul 25, 2017 at 9:53 pm


Visibility: 10 mi

Pressure: 30.09 "Hg

Humidity: 75%

Dew Point: 78 °F

Location of Key WestLocation

Past Weather in Key West — Graph

°F

Key West Temperature Yesterday

Maximum temperature yesterday: 89 °F (at 1:53 pm)
Minimum temperature yesterday: 85 °F (at 12:53 am)
Average temperature yesterday: 87 °F

High & Low Weather Summary for the Past Weeks

 TemperatureHumidityPressure
High91 °F (Jul 12, 2:53 pm)96% (Jul 16, 4:53 am)30.14 "Hg (Jul 16, 4:53 am)
Low76 °F (Jul 16, 3:43 am)57% (Jul 23, 4:53 pm)29.95 "Hg (Jul 16, 4:53 am)
Average85 °F75%30.04 "Hg
* Reported Jul 10 8:53 pm — Jul 25 8:53 pm, Key West. Weather by CustomWeather, © 2017

Note: Actual official high and low records may vary slightly from our data, if they occured in-between our weather recording intervals... More about our weather records

Advertising

Key West Weather History for the Previous 24 Hours

Scroll right to see more
 ConditionsComfort  
Time TempWeatherWind HumidityBarometerVisibility
8:53 pm
Tue, Jul 25
87 °FPassing clouds.5 mph77%30.09 "Hg10 mi
7:53 pm87 °FSunny.6 mph72%30.07 "Hg10 mi
6:53 pm88 °FSunny.6 mph67%30.07 "Hg10 mi
5:53 pm88 °FSunny.No wind61%30.08 "Hg10 mi
4:53 pm86 °FSunny.5 mph63%30.09 "Hg10 mi
4:36 pm85 °FSunny.6 mph68%30.09 "Hg10 mi
3:55 pm83 °FThundershowers. Passing clouds.7 mph74%30.11 "Hg10 mi
3:11 pm87 °FThunderstorms. Partly sunny.12 mph72%30.11 "Hg10 mi
2:53 pm90 °FThunderstorms. Passing clouds.7 mph70%30.11 "Hg10 mi
2:43 pm90 °FThunderstorms. Sunny.8 mph70%30.11 "Hg10 mi
1:53 pm90 °FScattered clouds.7 mph70%30.11 "Hg10 mi
1:14 pm89 °FScattered clouds.8 mph72%30.13 "Hg10 mi
12:53 pm90 °FThunderstorms. Scattered clouds.9 mph70%30.13 "Hg10 mi
12:29 pm90 °FThundershowers. Scattered clouds.7 mph73%30.13 "Hg10 mi
11:53 am89 °FPassing clouds.7 mph75%30.14 "Hg10 mi
10:53 am88 °FPassing clouds.7 mph73%30.13 "Hg10 mi
9:53 am88 °FBroken clouds.9 mph75%30.11 "Hg10 mi
8:53 am87 °FScattered clouds.6 mph80%30.12 "Hg10 mi
7:53 am86 °FScattered clouds.9 mph80%30.10 "Hg10 mi
6:53 am85 °FScattered clouds.9 mph83%30.10 "Hg10 mi
5:53 am85 °FPassing clouds.12 mph80%30.08 "Hg10 mi
5:42 am85 °FPartly cloudy.9 mph80%30.08 "Hg10 mi
4:53 am85 °FPassing clouds.10 mph83%30.07 "Hg10 mi
3:53 am85 °FPassing clouds.9 mph80%30.06 "Hg10 mi
2:53 am86 °FPassing clouds.9 mph77%30.07 "Hg10 mi
1:53 am86 °FPassing clouds.13 mph80%30.07 "Hg10 mi
12:53 am86 °FClear.10 mph80%30.07 "Hg10 mi
11:53 pm
Mon, Jul 24
86 °FPassing clouds.12 mph83%30.09 "Hg10 mi
10:53 pm86 °FClear.10 mph80%30.09 "Hg10 mi
Weather by CustomWeather, © 2017

See weather overviewHow to use our weather pages